Weather History for Indianapolis Mount Comfort, IN

Change the Weather History Date:

Tuesday, April 29, 2014

  Actual Average (KEYE) Record (KEYE)
Temperature  
Mean Temperature 62 °F 57 °F  
Max Temperature 73 °F 67 °F 80 °F (2007)
Min Temperature 50 °F 48 °F 37 °F (2008)
Degree Days  
Heating Degree Days 4 8  
Month to date heating degree days 361  
Since 1 July heating degree days 5186  
Cooling Degree Days 0 1  
Month to date cooling degree days 19  
Year to date cooling degree days 20  
Growing Degree Days 12 (Base 50)    
Moisture  
Dew Point 50 °F    
Average Humidity 70    
Maximum Humidity 100    
Minimum Humidity 31    
Precipitation  
Precipitation 0.00 in 0.18 in 0.25 in (2014)
Month to date precipitation 3.70  
Year to date precipitation 11.34  
Sea Level Pressure  
Sea Level Pressure 29.63 in    
Wind  
Wind Speed 11 mph (South)    
Max Wind Speed 26 mph    
Max Gust Speed 36 mph    
Visibility 10 miles    
Events      
T = Trace of Precipitation, MM = Missing Value Source: NWS Daily Summary

Daily Weather History Graph

Daily Weather History Graph

Search for Another Location

Airport:

Trip Planner

Search our weather history database for the weather conditions in past years. The results will help you decide how hot, cold, wet, or windy it might be!

Date:

Astronomy

Apr. 29, 2014 Rise Set
Actual Time 6:46 AM EDT 8:36 PM EDT
Civil Twilight 6:17 AM EDT 9:05 PM EDT
Nautical Twilight 5:42 AM EDT 9:40 PM EDT
Astronomical Twilight 5:04 AM EDT 10:18 PM EDT
Moon 7:04 AM EDT (4/29) 9:15 PM EDT (4/29)
Length of Visible Light 14h 47m
Length of Day
13h 49m
New Moon, 0% of the Moon is Illuminated
Apr 29
New Moon
May 6
First Quarter
May 14
Full
May 21
Last Quarter
May 28
New

Hourly Weather History & Observations

Time (EDT) Temp. Dew Point Humidity Pressure Visibility Wind Dir Wind Speed Gust Speed Precip Events Conditions
12:15 AM 60.8 °F - N/A% 29.58 in 7.0 mi SE 9.2 mph - N/A   Mostly Cloudy
12:34 AM 60.8 °F - N/A% 29.57 in 10.0 mi SE 12.7 mph - N/A   Overcast
12:55 AM 60.8 °F - N/A% 29.56 in 10.0 mi SE 13.8 mph 19.6 mph N/A   Mostly Cloudy
1:15 AM 60.8 °F - N/A% 29.57 in 10.0 mi SSW 12.7 mph 23.0 mph N/A   Overcast
1:35 AM 60.8 °F - N/A% 29.56 in 10.0 mi South 12.7 mph - N/A   Overcast
1:55 AM 60.8 °F - N/A% 29.56 in 10.0 mi SSE 10.4 mph 16.1 mph N/A   Mostly Cloudy
2:14 AM 60.8 °F - N/A% 29.54 in 10.0 mi SSE 11.5 mph - N/A   Overcast
2:35 AM 60.8 °F - N/A% 29.54 in 10.0 mi SSE 11.5 mph - N/A   Overcast
2:55 AM 60.8 °F - N/A% 29.53 in 10.0 mi SSE 11.5 mph - N/A   Overcast
3:14 AM 60.8 °F - N/A% 29.55 in 10.0 mi West 16.1 mph 23.0 mph N/A   Overcast
3:35 AM 57.2 °F 57.2 °F 100% 29.56 in 10.0 mi WNW 10.4 mph - N/A   Mostly Cloudy
3:54 AM 55.4 °F 55.4 °F 100% 29.55 in 10.0 mi NW 5.8 mph - N/A   Clear
4:15 AM 53.6 °F 53.6 °F 100% 29.54 in 10.0 mi NW 4.6 mph - N/A   Clear
4:35 AM 53.6 °F - N/A% 29.54 in 10.0 mi Calm Calm - N/A   Scattered Clouds
4:55 AM 51.8 °F - N/A% 29.55 in 10.0 mi Calm Calm - N/A   Scattered Clouds
5:15 AM 53.6 °F - N/A% 29.56 in 10.0 mi West 8.1 mph - N/A   Scattered Clouds
5:34 AM 53.6 °F - N/A% 29.56 in 10.0 mi Calm Calm - N/A   Scattered Clouds
5:55 AM 51.8 °F - N/A% 29.53 in 10.0 mi East 3.5 mph - N/A   Clear
6:15 AM 50.0 °F - N/A% 29.54 in 10.0 mi SE 4.6 mph - N/A   Clear
6:35 AM 50.0 °F - N/A% 29.54 in 10.0 mi Calm Calm - N/A   Clear
6:55 AM 50.0 °F - N/A% 29.53 in 7.0 mi SE 3.5 mph - N/A   Clear
7:14 AM 50.0 °F - N/A% 29.55 in 10.0 mi SSE 6.9 mph - N/A   Clear
7:35 AM 51.8 °F - N/A% 29.55 in 10.0 mi SE 8.1 mph - N/A   Clear
7:55 AM 53.6 °F - N/A% 29.55 in 10.0 mi SSE 5.8 mph - N/A   Clear
8:15 AM 55.4 °F - N/A% 29.56 in 10.0 mi SSE 5.8 mph - N/A   Clear
8:35 AM 57.2 °F 57.2 °F 100% 29.57 in 10.0 mi South 5.8 mph - N/A   Clear
8:55 AM 59.0 °F 59.0 °F 100% 29.59 in 10.0 mi South 4.6 mph - N/A   Clear
9:15 AM 60.8 °F 60.8 °F 100% 29.59 in 10.0 mi South 6.9 mph - N/A   Clear
9:34 AM 60.8 °F 55.4 °F 82% 29.60 in 10.0 mi South 8.1 mph - N/A   Clear
9:55 AM 62.6 °F 55.4 °F 77% 29.60 in 10.0 mi South 9.2 mph - N/A   Clear
10:15 AM 64.4 °F 53.6 °F 68% 29.60 in 10.0 mi South 11.5 mph - N/A   Clear
10:35 AM 64.4 °F 55.4 °F 73% 29.61 in 10.0 mi South 12.7 mph - N/A   Clear
10:55 AM 66.2 °F 53.6 °F 64% 29.61 in 10.0 mi South 12.7 mph 17.3 mph N/A   Clear
11:15 AM 66.2 °F 53.6 °F 64% 29.61 in 10.0 mi South 12.7 mph 19.6 mph N/A   Clear
11:35 AM 68.0 °F 53.6 °F 60% 29.61 in 10.0 mi South 13.8 mph 21.9 mph N/A   Clear
11:54 AM 69.8 °F 53.6 °F 56% 29.61 in 10.0 mi South 15.0 mph 20.7 mph N/A   Clear
12:15 PM 69.8 °F 51.8 °F 53% 29.60 in 10.0 mi South 11.5 mph 19.6 mph N/A   Clear
12:35 PM 69.8 °F 50.0 °F 49% 29.61 in 10.0 mi SSW 16.1 mph 24.2 mph N/A   Clear
12:55 PM 71.6 °F 53.6 °F 53% 29.61 in 10.0 mi SSW 16.1 mph 26.5 mph N/A   Clear
1:15 PM 71.6 °F 44.6 °F 38% 29.62 in 10.0 mi SSW 19.6 mph 29.9 mph N/A   Clear
1:35 PM 73.4 °F 44.6 °F 36% 29.62 in 10.0 mi SW 26.5 mph 35.7 mph N/A   Clear
1:55 PM 73.4 °F 44.6 °F 36% 29.62 in 10.0 mi SSW 23.0 mph 29.9 mph N/A   Clear
2:14 PM 73.4 °F 44.6 °F 36% 29.61 in 10.0 mi SSW 19.6 mph 28.8 mph N/A   Clear
2:35 PM 73.4 °F 44.6 °F 36% 29.63 in 10.0 mi SSW 20.7 mph 27.6 mph N/A   Clear
2:55 PM 73.4 °F 44.6 °F 36% 29.63 in 10.0 mi SSW 17.3 mph 28.8 mph N/A   Clear
3:15 PM 73.4 °F 41.0 °F 31% 29.63 in 10.0 mi SSW 18.4 mph 32.2 mph N/A   Clear
3:35 PM 73.4 °F 41.0 °F 31% 29.64 in 10.0 mi SW 19.6 mph 28.8 mph N/A   Clear
3:55 PM 73.4 °F 41.0 °F 31% 29.64 in 10.0 mi SSW 17.3 mph 31.1 mph N/A   Clear
4:15 PM 71.6 °F 41.0 °F 33% 29.64 in 10.0 mi SW 19.6 mph 27.6 mph N/A   Clear
4:35 PM 69.8 °F 41.0 °F 35% 29.65 in 10.0 mi SSW 21.9 mph 27.6 mph N/A   Clear
5:14 PM 62.6 °F 48.2 °F 59% 29.70 in 10.0 mi WSW 19.6 mph 25.3 mph N/A   Scattered Clouds
5:35 PM 62.6 °F 48.2 °F 59% 29.70 in 10.0 mi SSW 18.4 mph 24.2 mph N/A   Scattered Clouds
5:55 PM 62.6 °F 48.2 °F 59% 29.71 in 10.0 mi SSW 12.7 mph 23.0 mph N/A   Clear
6:15 PM 62.6 °F 48.2 °F 59% 29.73 in 10.0 mi SSW 16.1 mph 27.6 mph N/A   Scattered Clouds
6:35 PM 59.0 °F 50.0 °F 72% 29.76 in 10.0 mi SW 21.9 mph 31.1 mph N/A   Overcast
6:54 PM 55.4 °F 48.2 °F 77% 29.78 in 7.0 mi SW 18.4 mph 32.2 mph N/A   Overcast
7:15 PM 55.4 °F 48.2 °F 77% 29.79 in 10.0 mi SSW 19.6 mph 25.3 mph N/A   Overcast
7:34 PM 53.6 °F 50.0 °F 88% 29.76 in 10.0 mi South 11.5 mph 16.1 mph N/A   Overcast
7:55 PM 55.4 °F 48.2 °F 77% 29.78 in 7.0 mi SSW 21.9 mph 31.1 mph N/A   Overcast
8:15 PM 55.4 °F 50.0 °F 82% 29.74 in 10.0 mi South 10.4 mph - N/A   Scattered Clouds
8:35 PM 53.6 °F 50.0 °F 88% 29.73 in 10.0 mi SSE 10.4 mph - N/A   Clear
8:55 PM 53.6 °F 51.8 °F 94% 29.72 in 10.0 mi SE 11.5 mph - N/A   Clear
9:14 PM 53.6 °F 51.8 °F 94% 29.71 in 10.0 mi SE 9.2 mph - N/A   Clear
9:35 PM 51.8 °F 51.8 °F 100% 29.71 in 10.0 mi SE 9.2 mph - N/A   Clear
9:55 PM 51.8 °F 51.8 °F 100% 29.71 in 10.0 mi SSE 8.1 mph - N/A   Clear
10:15 PM 51.8 °F 51.8 °F 100% 29.72 in 10.0 mi SSE 10.4 mph - N/A   Clear
10:35 PM 51.8 °F 51.8 °F 100% 29.72 in 10.0 mi SSE 10.4 mph - N/A   Clear
10:55 PM 53.6 °F 51.8 °F 94% 29.74 in 10.0 mi SSE 13.8 mph 18.4 mph N/A   Clear
11:15 PM 53.6 °F 51.8 °F 94% 29.75 in 10.0 mi South 12.7 mph 17.3 mph N/A   Clear
11:34 PM 53.6 °F 51.8 °F 94% 29.75 in 10.0 mi South 11.5 mph 16.1 mph N/A   Clear
11:55 PM 53.6 °F 51.8 °F 94% 29.76 in 10.0 mi South 11.5 mph - N/A   Clear